TimePDT,TemperatureF,Dew PointF,Humidity,Sea Level PressureIn,VisibilityMPH,Wind Direction,Wind SpeedMPH,Gust SpeedMPH,PrecipitationIn,Events,Conditions,WindDirDegrees,DateUTC
12:53 AM,39.9,37.9,93,30.38,10.0,Calm,Calm,-,N/A,,Clear,0,2013-10-14 07:53:00
1:53 AM,37.9,37.0,97,30.39,10.0,South,3.5,-,N/A,,Clear,190,2013-10-14 08:53:00
2:53 AM,41.0,37.9,89,30.39,10.0,SW,5.8,-,N/A,,Clear,230,2013-10-14 09:53:00
3:53 AM,39.9,37.0,89,30.39,10.0,Calm,Calm,-,N/A,,Clear,0,2013-10-14 10:53:00
4:53 AM,39.0,37.0,93,30.40,10.0,SW,5.8,-,N/A,,Clear,220,2013-10-14 11:53:00
5:53 AM,37.0,36.0,96,30.41,10.0,Calm,Calm,-,N/A,,Clear,0,2013-10-14 12:53:00
6:53 AM,41.0,37.9,89,30.42,10.0,SW,6.9,-,N/A,,Clear,230,2013-10-14 13:53:00
7:53 AM,41.0,37.9,89,30.43,10.0,SW,5.8,-,N/A,,Clear,230,2013-10-14 14:53:00
8:53 AM,45.0,42.1,90,30.43,10.0,Calm,Calm,-,N/A,,Clear,0,2013-10-14 15:53:00
9:53 AM,51.1,45.0,80,30.44,10.0,East,4.6,-,N/A,,Clear,90,2013-10-14 16:53:00
10:53 AM,52.0,46.0,80,30.44,10.0,East,6.9,-,N/A,,Clear,80,2013-10-14 17:53:00
11:53 AM,53.1,46.0,77,30.45,10.0,East,9.2,-,N/A,,Clear,90,2013-10-14 18:53:00
12:53 PM,54.0,46.0,75,30.45,10.0,East,6.9,-,N/A,,Clear,90,2013-10-14 19:53:00
1:53 PM,53.1,45.0,74,30.43,10.0,East,8.1,-,N/A,,Clear,90,2013-10-14 20:53:00
2:53 PM,55.9,46.9,72,30.41,10.0,ESE,6.9,-,N/A,,Clear,120,2013-10-14 21:53:00
3:53 PM,57.9,43.0,58,30.40,10.0,ESE,5.8,-,N/A,,Clear,120,2013-10-14 22:53:00
4:53 PM,57.0,44.1,62,30.39,10.0,ESE,8.1,-,N/A,,Clear,120,2013-10-14 23:53:00
5:53 PM,55.9,42.1,60,30.39,10.0,East,4.6,-,N/A,,Clear,90,2013-10-15 00:53:00
6:53 PM,48.9,44.1,83,30.39,10.0,Calm,Calm,-,N/A,,Clear,0,2013-10-15 01:53:00
7:53 PM,46.0,43.0,89,30.40,10.0,Calm,Calm,-,N/A,,Clear,0,2013-10-15 02:53:00
8:53 PM,42.1,39.9,92,30.39,10.0,Calm,Calm,-,N/A,,Clear,0,2013-10-15 03:53:00
9:53 PM,43.0,39.0,86,30.40,10.0,SW,3.5,-,N/A,,Clear,230,2013-10-15 04:53:00
10:53 PM,41.0,37.9,89,30.40,10.0,SSW,3.5,-,N/A,,Clear,200,2013-10-15 05:53:00
11:53 PM,39.9,37.9,93,30.40,10.0,Calm,Calm,-,N/A,,Clear,0,2013-10-15 06:53:00